Vorticity
9 10 10 10 10 10 9 9 8 8 8 8 8 8 8 8 8 8 8 8 8 8 8 8 8 8 8 8 8 8 8 8 8 8 8 8 8 8 8 8 8 8 8 8 8 8 7 7 7 6 6 5 5 5 5 5 5 6 6 8 9 10 12 12 13 13 13 13 12 11 10 9 9 9 9 10 10 9 9 9 9 10 10 10 8 6
10 10 10 9 9 8 8 7 7 7 6 7 7 7 7 7 7 8 8 8 7 7 6 7 7 7 7 7 7 7 7 7 7 7 7 7 8 8 8 8 8 8 8 8 8 8 8 8 8 7 7 6 6 6 5 5 5 5 5 5 6 7 8 10 11 12 12 12 12 12 11 11 10 10 11 11 11 10 10 9 9 10 10 11 10 9
9 9 8 8 7 7 6 6 6 6 5 5 5 5 5 5 5 6 6 6 6 6 6 5 5 5 5 5 5 5 5 6 6 6 6 6 6 6 6 6 7 7 7 8 8 8 8 8 8 8 8 7 7 7 7 6 6 6 5 5 5 5 6 7 8 9 10 11 11 12 11 11 11 11 12 12 12 11 10 10 10 10 10 11 11 11
8 7 7 6 6 6 5 5 5 4 4 4 4 3 3 3 3 3 4 4 5 5 6 5 5 5 4 4 4 4 4 5 5 5 5 5 5 5 5 5 5 6 6 6 7 7 7 8 8 8 8 8 8 8 7 7 7 7 6 6 6 6 5 5 6 6 7 8 9 10 10 10 10 10 11 12 12 12 11 10 10 10 10 11 11 11
6 6 6 5 5 5 4 4 4 4 4 4 3 3 3 2 2 1 2 2 3 4 5 6 6 6 5 5 4 4 4 4 5 5 5 5 5 5 5 5 5 5 5 5 5 6 6 6 7 7 8 8 8 8 8 8 8 8 8 7 7 7 6 6 5 5 5 6 7 7 8 8 8 9 10 11 12 12 11 11 11 11 11 11 11 11
5 5 5 4 4 4 4 4 4 4 4 4 4 4 4 4 3 2 2 2 2 3 4 5 6 6 6 6 5 5 4 4 4 4 5 5 5 5 4 4 4 4 4 4 4 4 5 5 6 6 7 7 7 8 8 8 8 8 8 8 8 8 7 7 6 5 5 5 5 6 6 6 7 7 9 10 11 11 11 11 12 12 12 12 11 11
5 4 4 4 4 4 4 4 4 4 5 5 5 5 5 5 5 4 3 2 1 1 1 2 3 5 6 6 6 5 5 4 4 4 4 4 4 4 4 4 4 4 4 4 4 4 4 4 4 5 5 6 6 7 7 7 7 7 8 8 8 8 8 8 7 7 6 5 5 5 5 5 5 6 8 9 9 10 11 11 12 12 13 12 12 11
4 4 4 4 5 5 5 5 5 5 5 6 6 6 6 5 5 4 4 3 2 1 1 0 1 1 3 4 5 5 5 4 4 3 2 2 3 3 3 4 3 3 3 3 3 3 3 3 4 4 4 5 5 6 6 6 7 7 7 8 8 8 8 8 8 8 7 6 6 5 5 4 5 5 6 7 8 9 10 11 12 12 13 12 12 11
4 4 4 4 5 5 5 5 5 5 5 6 6 6 6 5 5 4 4 3 3 2 1 -0 -1 -1 -1 0 2 3 4 4 4 3 2 2 2 2 3 3 3 3 3 3 3 3 3 3 3 3 3 4 4 4 5 5 6 6 6 7 7 8 8 9 9 8 8 8 7 6 5 5 5 5 5 6 6 7 8 9 11 12 13 12 12 11
4 4 5 5 5 5 5 6 6 5 5 5 5 5 5 5 5 5 4 3 3 2 1 1 -0 -1 -3 -3 -2 -0 2 4 4 4 4 3 2 2 2 3 3 4 4 3 3 3 3 3 3 3 3 3 3 4 4 4 5 5 6 6 7 7 8 8 8 9 8 8 8 7 7 6 5 5 5 5 5 6 6 8 9 11 12 12 12 11
5 5 5 6 5 5 5 5 5 5 5 5 5 4 4 4 5 5 5 4 3 3 2 2 1 1 -0 -2 -3 -3 -2 1 3 4 5 5 4 3 3 3 3 4 4 4 4 4 3 4 4 4 4 4 4 4 4 4 4 5 5 5 6 6 7 7 8 8 8 8 8 8 8 7 7 6 5 5 4 5 5 6 8 9 10 11 11 11
5 6 5 6 6 5 5 5 5 5 5 5 5 5 5 4 4 5 5 5 5 4 4 3 3 2 2 1 -0 -1 -2 -2 -0 2 4 5 6 6 5 4 4 4 4 4 4 4 4 4 4 4 4 4 4 4 4 4 4 4 4 5 5 6 6 7 7 7 8 8 8 8 8 8 8 7 6 5 5 4 4 5 6 8 9 10 10 11
6 5 5 5 5 5 5 5 5 5 5 5 5 5 5 5 5 4 5 5 5 5 5 5 4 4 4 3 3 2 1 -0 -1 -0 1 3 5 6 7 6 5 4 4 5 5 5 5 5 5 5 5 5 5 5 4 4 4 4 4 5 5 5 6 6 6 7 7 7 8 8 8 8 8 8 7 6 5 5 4 4 5 6 8 9 10 10
5 5 5 5 5 5 5 5 5 5 5 5 5 5 6 6 6 5 6 6 6 6 6 6 6 6 5 5 5 5 4 3 2 1 -0 1 2 4 6 7 6 6 5 5 5 5 5 5 5 5 5 5 5 5 5 5 5 5 5 5 5 5 5 6 6 6 6 7 7 7 8 8 8 8 8 7 6 6 5 4 4 5 6 7 8 9
5 5 5 5 5 5 5 5 5 5 5 5 5 6 6 6 6 6 6 7 7 7 6 7 7 7 7 6 6 6 6 6 5 4 2 1 0 1 3 5 6 6 6 5 5 5 5 5 5 5 5 5 5 5 5 5 5 5 5 5 5 5 5 5 6 6 6 6 6 7 7 7 8 8 8 8 7 6 6 5 4 4 5 6 7 8
4 4 5 5 5 5 5 5 5 6 6 6 6 6 6 6 6 6 6 7 7 7 7 7 7 8 7 7 7 7 7 7 7 6 5 3 1 0 0 2 4 5 5 5 5 5 5 5 5 4 4 4 4 4 5 5 5 5 5 5 5 5 5 5 5 6 6 6 6 6 6 7 7 7 8 8 8 7 7 6 5 4 4 5 6 7
5 5 5 5 5 5 5 5 5 5 6 6 6 6 6 6 6 6 6 6 6 7 7 7 7 7 7 7 6 6 6 7 7 7 6 5 4 2 -0 0 1 2 3 4 4 4 4 4 4 4 4 3 4 4 4 4 4 4 4 4 4 5 5 5 5 5 5 6 6 6 6 6 7 7 7 8 8 8 7 7 6 5 4 4 5 5
5 5 5 5 6 6 5 5 5 6 6 6 6 6 5 5 5 5 6 6 6 6 6 6 6 6 6 6 5 5 4 5 6 6 6 6 5 4 2 1 1 1 1 2 3 3 3 3 2 2 2 2 3 3 3 3 3 3 4 4 4 4 4 4 5 5 5 5 6 6 6 6 6 7 7 8 8 8 8 7 7 6 5 5 4 4
6 6 6 6 6 6 6 6 6 6 6 5 5 5 5 5 5 5 5 5 5 5 5 5 5 5 5 5 4 4 4 4 4 5 5 5 5 4 4 3 2 1 1 1 1 2 2 2 2 2 2 2 2 2 2 3 3 3 3 3 3 4 4 4 4 4 5 5 5 6 6 6 6 6 7 7 8 8 8 8 7 7 6 5 5 4
6 6 6 6 5 6 6 5 5 5 5 5 5 5 5 5 5 5 5 5 5 5 5 5 5 5 5 5 5 5 4 4 5 5 5 5 5 5 4 4 4 3 3 2 2 2 2 3 3 3 3 2 2 2 3 3 3 3 3 3 3 3 4 4 4 4 4 5 5 5 5 6 6 6 7 7 7 7 7 8 8 8 7 6 5 5
5 5 5 4 4 4 4 4 4 4 4 4 4 5 5 5 5 5 5 5 5 5 6 6 6 6 6 6 6 6 6 7 7 7 7 7 7 7 7 6 6 6 5 5 4 4 4 4 4 4 4 4 4 4 4 4 4 4 4 4 4 4 4 4 4 4 4 4 4 4 5 5 6 6 7 7 7 7 7 7 8 8 8 7 6 5
4 4 4 3 3 3 3 4 4 3 3 4 4 5 5 5 6 6 6 7 7 7 7 8 8 8 8 9 9 9 9 11 10 9 8 9 9 10 10 10 9 9 9 8 8 8 7 7 7 7 6 6 6 6 5 5 5 5 5 6 6 6 5 5 5 4 4 4 4 4 4 5 6 6 6 7 7 7 7 7 8 8 8 8 7 6
4 4 4 3 3 3 3 3 3 4 4 4 5 5 5 6 6 7 7 8 8 8 9 9 9 10 11 12 11 11 13 13 12 11 10 11 11 11 12 13 13 13 13 12 12 12 12 11 10 9 9 9 8 8 8 8 7 7 7 8 8 8 7 6 6 5 5 5 5 5 5 5 6 6 6 6 7 7 7 7 7 8 8 8 8 7
4 4 4 4 4 4 4 4 4 4 5 6 6 7 7 8 8 8 8 9 9 10 10 11 12 13 14 14 14 14 14 15 15 14 14 14 14 13 14 16 16 16 16 15 15 15 15 15 15 14 12 12 11 11 11 10 10 10 10 10 10 9 9 8 7 7 7 7 6 6 6 6 6 6 6 6 7 7 7 6 6 7 8 9 9 8
4 4 4 4 4 4 5 5 6 6 7 8 9 10 10 12 12 12 12 14 14 15 15 15 16 16 16 16 16 17 16 17 18 17 16 16 16 17 17 19 19 18 17 18 18 18 17 18 18 18 17 15 14 13 13 13 12 12 12 12 12 11 10 9 8 8 8 8 8 7 8 8 9 10 10 9 8 8 8 7 7 7 8 9 9 9
4 5 5 5 6 6 7 8 9 10 11 13 13 14 14 14 14 15 17 19 20 20 19 19 20 19 18 18 19 19 17 20 21 21 20 18 18 19 20 23 23 22 20 21 22 22 20 19 19 20 20 19 17 16 15 14 14 14 15 14 13 12 11 10 10 10 10 10 9 9 8 8 11 14 15 13 11 10 11 10 9 8 8 9 9 9
6 6 7 8 8 10 11 13 14 16 18 19 20 20 19 18 18 19 22 23 23 22 21 19 18 18 18 20 20 20 19 22 24 25 26 25 23 22 22 25 26 26 23 25 26 25 23 21 21 22 22 21 20 19 18 16 16 16 17 16 15 14 12 12 11 11 11 12 12 11 11 8 5 4 8 10 12 13 16 15 13 10 9 10 10 10
7 8 9 11 12 14 17 18 20 21 22 22 23 23 23 22 22 23 25 24 25 24 21 19 18 18 17 18 20 21 23 26 28 29 31 31 29 27 24 27 28 27 25 28 29 28 27 25 25 25 25 24 23 23 21 19 18 18 19 19 18 16 15 13 13 12 12 13 13 13 13 10 6 3 2 7 12 16 20 17 13 10 9 10 12 12
10 11 13 16 18 20 21 21 22 22 23 23 24 24 25 26 27 26 24 24 25 25 21 22 23 23 21 21 23 26 31 33 34 34 34 34 32 30 28 31 30 29 29 30 31 31 31 30 29 28 27 26 26 25 24 22 20 20 21 22 21 20 18 16 15 14 13 13 13 14 14 12 11 10 9 12 17 20 17 11 7 6 6 9 12 15
14 16 19 21 22 22 22 21 21 22 23 24 24 25 27 30 30 29 25 27 27 25 22 24 26 28 27 28 30 33 37 38 38 37 35 33 31 30 31 33 32 31 33 33 32 31 31 32 32 31 30 29 29 28 27 25 23 21 21 23 24 24 22 20 18 16 15 14 13 13 14 14 14 14 14 17 19 17 8 8 7 6 4 7 13 17
17 19 20 21 22 21 21 20 21 22 24 25 26 27 28 30 30 29 28 28 28 26 24 25 27 29 31 33 35 36 37 37 37 36 34 33 31 29 31 31 31 31 35 35 32 31 31 32 32 32 31 31 31 31 30 28 26 23 21 22 24 25 25 23 21 19 17 15 14 13 13 14 13 13 12 15 13 7 2 13 16 13 6 5 9 14
18 19 20 19 19 20 21 22 24 25 26 27 28 29 29 29 29 29 28 28 27 26 25 26 28 30 33 35 36 37 36 36 35 35 33 33 32 32 33 32 31 32 34 34 33 32 31 32 31 31 31 31 31 31 32 31 29 26 23 22 23 25 26 25 23 21 19 17 15 14 14 14 13 13 12 14 6 -1 -0 17 22 19 11 5 3 4
19 20 20 20 21 22 23 25 26 27 28 28 29 29 29 28 28 27 26 26 25 25 25 26 27 30 32 34 35 35 36 36 36 35 34 34 33 33 33 33 33 33 33 33 33 33 32 32 31 31 32 31 31 30 31 32 32 30 26 24 24 25 26 26 24 23 20 18 16 15 14 14 14 15 15 16 4 -8 -5 13 21 22 17 8 1 -1
20 20 21 22 24 25 26 27 28 29 29 29 29 29 28 26 25 24 23 22 23 24 25 27 29 31 31 32 32 33 35 36 35 34 32 32 32 31 31 32 32 32 33 32 32 32 32 31 31 31 31 31 30 30 29 30 31 31 29 26 26 26 26 26 26 24 22 20 18 16 15 14 14 15 18 17 2 -14 -17 3 16 22 21 12 4 1
21 23 25 26 27 28 28 29 30 30 29 29 28 27 26 24 22 21 21 22 23 25 28 31 33 34 33 30 29 28 29 28 28 27 26 26 27 27 27 28 28 29 30 30 31 31 31 31 31 31 30 30 29 29 29 29 29 29 29 28 27 27 27 27 27 26 24 22 20 18 16 14 13 14 18 18 0 -21 -30 -11 7 19 21 10 4 3
25 26 28 30 30 29 29 30 29 29 28 27 26 25 24 23 22 23 24 26 28 31 33 35 36 35 33 29 27 24 21 19 18 18 18 19 20 21 22 22 23 24 26 27 28 29 30 31 31 31 31 30 29 29 29 29 29 28 28 27 27 27 27 28 29 29 27 25 22 20 17 15 14 14 17 17 2 -19 -35 -21 -3 12 13 3 1 4
29 30 31 31 31 30 29 29 28 28 26 26 25 24 24 25 26 28 30 32 34 35 35 33 31 27 24 21 19 17 16 14 12 11 11 12 13 15 16 17 18 20 21 23 24 26 28 29 30 31 31 31 30 30 30 31 30 28 27 26 25 26 27 28 29 30 30 28 25 22 19 16 14 14 15 18 10 -5 -24 -19 -7 2 2 -0 3 9
31 32 32 31 31 30 29 28 28 27 27 26 26 27 28 29 31 33 35 36 35 33 30 25 19 14 9 7 7 7 7 7 7 6 6 6 7 9 11 13 14 16 18 20 22 23 25 26 28 30 31 32 31 31 31 31 30 29 28 26 25 26 27 28 30 31 31 29 27 25 22 19 16 14 14 17 17 12 1 1 4 8 7 8 10 12
32 32 31 32 31 31 29 29 28 28 29 30 31 32 33 35 36 37 36 33 29 24 18 12 7 3 1 1 2 3 4 4 4 4 5 5 6 7 8 10 12 14 16 19 21 22 23 24 26 28 30 32 32 32 32 32 30 29 30 29 28 28 28 29 30 31 31 30 29 27 24 21 18 16 14 15 15 15 15 14 14 14 13 12 12 10
33 33 33 33 32 31 30 31 31 32 33 35 37 38 39 38 36 33 29 23 17 11 6 2 0 -1 -0 2 3 4 5 5 6 6 7 7 8 8 9 10 11 14 16 19 21 22 23 24 25 26 28 31 32 33 34 36 35 34 33 32 31 31 31 31 31 31 32 31 30 28 26 23 20 16 14 15 14 14 13 12 10 9 8 10 10 7
35 34 34 33 32 33 34 35 36 38 39 40 40 39 36 32 26 20 13 8 4 1 -1 -1 0 2 3 4 6 7 7 8 8 9 10 10 10 9 9 10 12 14 17 20 22 23 24 24 24 25 27 30 32 34 35 35 37 38 38 37 36 37 37 34 32 31 32 32 31 29 27 24 21 17 15 14 14 13 12 10 8 6 7 11 12 8
35 35 34 34 35 36 38 40 41 41 41 37 33 27 21 15 10 5 2 0 -0 0 1 2 4 5 6 7 9 10 11 12 12 12 12 11 10 10 10 11 13 15 18 21 23 24 25 25 25 26 27 30 33 35 36 36 36 38 40 41 42 43 41 38 34 31 31 30 30 29 27 25 22 19 16 16 16 15 13 10 9 9 10 13 11 5
36 36 37 39 40 42 42 41 38 34 28 21 15 9 4 2 1 1 2 3 4 5 7 8 9 10 10 11 12 14 15 14 13 12 11 10 10 10 10 12 14 17 20 23 25 26 26 26 26 27 28 30 33 35 37 36 37 39 43 42 38 35 34 36 36 34 32 31 30 29 28 27 24 21 20 16 16 17 14 10 9 10 11 14 8 0
38 40 42 42 41 38 33 27 20 13 8 4 2 1 1 2 4 6 8 9 10 11 11 12 13 14 14 15 15 15 14 13 12 11 10 9 10 10 12 14 17 21 24 26 27 27 27 27 28 29 30 30 32 34 37 37 39 41 43 35 27 20 18 24 30 34 36 34 32 30 28 28 26 23 19 17 20 21 13 11 11 13 14 13 4 -3
40 40 38 33 27 20 13 8 4 2 2 2 4 5 7 9 10 11 11 12 13 14 15 16 16 16 16 15 14 13 12 11 11 11 11 12 13 14 17 20 23 27 30 31 31 30 28 28 30 31 32 32 33 34 35 38 41 41 34 23 17 14 14 18 23 28 32 32 30 29 29 28 26 24 23 11 16 23 16 16 17 17 16 10 1 -3
31 26 19 13 8 5 2 2 4 5 7 8 9 10 11 12 13 13 14 15 17 18 19 18 17 16 16 15 15 15 15 15 16 17 18 19 21 23 26 29 32 34 36 35 34 32 31 30 31 32 33 33 34 36 38 41 39 33 21 13 11 12 14 16 19 23 28 29 28 27 29 27 25 24 23 16 15 18 19 20 20 19 17 5 -2 -0
14 9 5 3 3 3 5 7 8 10 11 11 12 13 14 15 16 17 19 20 20 20 19 18 18 19 20 21 22 23 24 26 27 28 29 30 32 34 36 38 39 39 39 36 34 32 32 32 32 33 33 31 32 36 43 42 34 23 12 10 9 10 12 14 16 20 25 27 27 26 27 25 24 24 26 18 15 16 20 21 20 18 15 -1 -4 4
4 3 3 5 6 8 10 11 12 13 14 15 16 18 19 20 20 20 20 20 20 20 20 22 24 26 27 29 31 34 36 39 40 40 40 40 40 40 40 41 41 40 38 33 30 28 28 31 33 33 31 29 31 36 43 37 26 16 12 10 9 9 11 13 16 19 23 27 28 27 25 23 22 23 27 20 16 17 21 21 20 16 7 -7 -4 9
4 6 8 10 12 13 15 15 16 17 18 19 20 21 22 21 20 20 19 20 21 23 24 25 24 25 26 28 32 37 42 45 47 46 45 43 41 40 39 39 38 36 32 27 24 23 24 28 31 33 32 30 32 37 42 32 21 14 13 9 8 9 13 16 18 20 23 27 30 29 26 22 23 24 22 16 16 18 19 20 19 13 -2 -12 -2 13
9 12 14 15 17 18 18 19 19 20 21 21 20 19 18 18 20 22 24 25 26 25 24 22 21 21 22 23 26 30 35 41 44 45 44 41 39 37 36 35 34 31 26 21 19 18 20 24 28 31 32 31 34 38 43 31 21 14 12 5 5 9 16 20 21 22 24 28 30 31 28 24 24 25 23 18 16 17 18 19 18 10 -10 -12 1 15
16 18 19 20 19 19 19 19 19 19 19 18 17 16 17 20 24 27 28 26 24 22 19 18 18 18 18 16 15 17 23 31 38 43 43 39 35 32 30 29 28 26 22 19 16 16 17 22 26 27 29 31 35 41 46 33 23 14 8 1 2 8 17 22 22 21 21 26 30 32 30 26 24 23 20 20 19 18 18 20 16 4 -17 -11 4 16
Height
5650 5650 5650 5649 5648 5648 5647 5647 5647 5647 5646 5647 5647 5647 5646 5646 5645 5645 5644 5644 5644 5644 5645 5645 5645 5645 5645 5645 5645 5644 5644 5644 5643 5643 5643 5644 5644 5644 5644 5644 5644 5644 5644 5644 5644 5644 5644 5645 5645 5645 5644 5644 5644 5644 5645 5645 5646 5646 5646 5646 5646 5646 5646 5646 5647 5647 5647 5647 5647 5647 5647 5647 5648 5648 5648 5649 5649 5649 5650 5650 5650 5651 5651 5651 5652 5652
5646 5645 5645 5644 5644 5643 5643 5643 5643 5642 5642 5642 5642 5642 5642 5641 5641 5640 5639 5639 5639 5639 5639 5640 5640 5640 5640 5640 5640 5640 5640 5639 5639 5639 5639 5639 5640 5640 5640 5640 5640 5640 5641 5641 5641 5641 5641 5641 5641 5641 5641 5641 5641 5641 5641 5641 5642 5642 5642 5643 5643 5643 5642 5642 5643 5643 5643 5643 5643 5644 5644 5644 5644 5645 5645 5646 5646 5646 5647 5647 5647 5647 5648 5648 5649 5649
5641 5640 5640 5640 5639 5639 5638 5638 5638 5637 5637 5637 5637 5637 5637 5637 5636 5635 5635 5634 5633 5633 5633 5634 5634 5634 5635 5635 5635 5635 5635 5635 5635 5635 5635 5635 5635 5635 5636 5636 5636 5636 5637 5637 5637 5637 5637 5637 5637 5637 5637 5637 5637 5637 5637 5637 5637 5638 5638 5639 5639 5639 5639 5639 5639 5639 5639 5640 5640 5640 5640 5640 5641 5641 5641 5642 5642 5642 5643 5643 5644 5644 5644 5645 5645 5646
5636 5635 5635 5635 5634 5634 5633 5633 5632 5632 5632 5632 5632 5632 5632 5632 5631 5631 5630 5629 5628 5628 5628 5628 5628 5628 5629 5629 5630 5630 5630 5630 5630 5630 5630 5630 5630 5631 5631 5631 5632 5632 5632 5632 5633 5633 5633 5633 5633 5633 5633 5633 5633 5633 5633 5633 5634 5634 5634 5635 5635 5635 5635 5635 5636 5636 5636 5636 5636 5637 5637 5637 5637 5637 5637 5638 5639 5639 5639 5640 5640 5641 5641 5642 5642 5642
5632 5630 5630 5630 5629 5628 5628 5627 5627 5626 5626 5626 5626 5626 5626 5626 5626 5626 5625 5625 5624 5623 5623 5622 5622 5622 5623 5623 5624 5624 5625 5625 5625 5625 5625 5625 5625 5626 5626 5626 5627 5627 5627 5628 5628 5628 5629 5629 5629 5629 5629 5629 5629 5629 5629 5629 5630 5630 5630 5631 5631 5631 5631 5632 5632 5632 5632 5632 5632 5633 5633 5633 5633 5634 5634 5635 5635 5636 5636 5636 5637 5637 5638 5638 5638 5639
5627 5625 5624 5624 5624 5623 5623 5622 5621 5621 5620 5620 5620 5620 5620 5620 5620 5620 5620 5620 5620 5619 5618 5618 5617 5617 5617 5617 5618 5619 5619 5619 5620 5620 5620 5620 5620 5620 5621 5621 5622 5622 5622 5623 5623 5624 5624 5624 5624 5625 5625 5625 5625 5625 5625 5625 5626 5626 5626 5627 5627 5627 5627 5627 5628 5628 5628 5629 5629 5629 5629 5630 5630 5630 5631 5631 5632 5632 5632 5633 5633 5634 5634 5635 5635 5636
5621 5620 5619 5618 5618 5617 5617 5617 5616 5615 5614 5614 5614 5614 5614 5614 5614 5614 5614 5614 5615 5614 5614 5614 5613 5612 5612 5612 5612 5613 5613 5614 5614 5615 5615 5615 5615 5615 5615 5616 5616 5617 5617 5618 5618 5619 5619 5619 5620 5620 5620 5621 5621 5621 5621 5621 5621 5622 5622 5622 5622 5623 5623 5623 5624 5624 5624 5625 5625 5626 5626 5626 5627 5627 5627 5627 5628 5628 5629 5629 5630 5631 5631 5631 5632 5632
5615 5614 5614 5613 5612 5612 5612 5611 5611 5610 5609 5608 5608 5608 5609 5609 5608 5608 5608 5608 5608 5609 5609 5609 5609 5608 5608 5607 5607 5607 5607 5608 5609 5609 5610 5610 5610 5610 5610 5610 5611 5611 5612 5612 5613 5613 5614 5614 5615 5615 5616 5616 5616 5617 5617 5617 5617 5617 5617 5618 5618 5618 5619 5619 5620 5620 5621 5621 5621 5622 5622 5622 5623 5623 5624 5624 5624 5625 5625 5626 5627 5627 5627 5628 5628 5629
5609 5608 5608 5607 5607 5606 5606 5606 5605 5604 5603 5602 5602 5602 5602 5602 5602 5602 5602 5602 5602 5602 5603 5603 5603 5604 5603 5602 5602 5602 5602 5602 5603 5603 5604 5604 5605 5605 5605 5605 5605 5605 5606 5607 5607 5608 5608 5609 5609 5610 5610 5611 5611 5612 5612 5612 5612 5613 5613 5613 5614 5614 5615 5615 5615 5616 5616 5617 5617 5618 5618 5619 5619 5620 5620 5620 5621 5621 5622 5622 5623 5623 5624 5624 5625 5625
5603 5602 5602 5602 5601 5601 5600 5599 5599 5599 5598 5597 5596 5596 5596 5596 5596 5596 5596 5597 5597 5597 5596 5596 5597 5598 5598 5598 5597 5596 5596 5596 5597 5597 5598 5598 5599 5599 5599 5599 5599 5599 5600 5601 5602 5602 5603 5603 5604 5604 5605 5605 5606 5607 5607 5607 5607 5608 5608 5609 5609 5610 5610 5611 5611 5612 5612 5613 5613 5614 5614 5615 5615 5616 5616 5616 5617 5617 5618 5618 5619 5620 5620 5621 5621 5622
5597 5597 5596 5595 5595 5595 5594 5593 5593 5592 5592 5591 5590 5589 5589 5589 5589 5588 5588 5589 5590 5591 5590 5590 5590 5591 5592 5592 5592 5592 5591 5590 5590 5591 5591 5592 5592 5593 5593 5593 5593 5593 5594 5594 5595 5596 5597 5597 5598 5598 5599 5600 5600 5601 5602 5602 5602 5603 5603 5604 5605 5605 5606 5606 5606 5607 5608 5608 5609 5609 5610 5610 5611 5611 5612 5612 5613 5613 5614 5615 5615 5616 5617 5617 5618 5618
5591 5590 5590 5589 5588 5588 5587 5587 5586 5586 5585 5584 5583 5582 5582 5582 5582 5582 5581 5582 5583 5584 5584 5583 5583 5584 5584 5585 5585 5585 5585 5585 5585 5585 5585 5585 5585 5586 5587 5587 5587 5587 5587 5588 5589 5590 5591 5591 5592 5592 5593 5594 5594 5595 5596 5596 5597 5597 5598 5599 5599 5600 5601 5601 5602 5602 5603 5603 5604 5605 5605 5606 5606 5607 5607 5608 5609 5609 5610 5611 5612 5612 5613 5613 5614 5615
5584 5584 5583 5582 5582 5581 5581 5580 5579 5578 5578 5577 5576 5576 5575 5575 5575 5575 5574 5574 5575 5576 5576 5576 5576 5577 5577 5577 5577 5577 5578 5578 5579 5579 5579 5578 5578 5579 5579 5580 5581 5581 5581 5582 5582 5583 5584 5585 5585 5586 5587 5587 5588 5589 5590 5591 5591 5592 5592 5593 5594 5595 5596 5596 5597 5597 5598 5598 5599 5600 5601 5601 5602 5602 5603 5604 5604 5605 5606 5607 5607 5608 5609 5610 5610 5611
5578 5577 5577 5576 5575 5575 5574 5573 5572 5571 5570 5570 5569 5568 5568 5567 5567 5567 5567 5566 5567 5568 5568 5568 5569 5569 5570 5570 5570 5569 5570 5571 5571 5572 5573 5573 5572 5572 5572 5572 5573 5574 5575 5575 5576 5576 5578 5578 5579 5579 5580 5581 5582 5582 5583 5584 5585 5586 5587 5587 5588 5589 5590 5591 5592 5592 5593 5593 5594 5595 5596 5597 5597 5598 5598 5599 5600 5601 5602 5602 5603 5604 5605 5606 5607 5608
5571 5571 5570 5569 5568 5568 5567 5566 5565 5564 5563 5562 5562 5561 5560 5560 5559 5559 5558 5558 5558 5559 5560 5560 5560 5561 5562 5563 5562 5562 5561 5562 5562 5564 5566 5566 5567 5566 5565 5564 5565 5566 5568 5569 5569 5569 5571 5571 5572 5572 5573 5574 5575 5576 5577 5578 5579 5579 5580 5581 5582 5583 5584 5585 5586 5587 5587 5588 5589 5590 5591 5592 5592 5593 5594 5595 5595 5596 5597 5598 5599 5600 5601 5602 5603 5604
5564 5564 5563 5562 5561 5561 5560 5559 5558 5557 5555 5554 5554 5553 5552 5551 5550 5550 5550 5550 5550 5550 5551 5551 5552 5552 5554 5555 5554 5554 5553 5552 5553 5555 5557 5559 5560 5559 5559 5558 5557 5558 5560 5562 5562 5562 5563 5564 5564 5565 5567 5567 5568 5569 5570 5571 5572 5573 5574 5575 5576 5577 5578 5579 5580 5581 5582 5583 5584 5585 5586 5587 5587 5588 5589 5590 5591 5592 5592 5593 5595 5596 5597 5598 5599 5600
5557 5556 5555 5555 5554 5553 5552 5551 5550 5549 5547 5546 5545 5544 5544 5543 5542 5542 5541 5541 5541 5541 5541 5542 5543 5544 5545 5546 5547 5546 5544 5543 5543 5544 5547 5550 5552 5552 5552 5552 5551 5550 5551 5553 5554 5555 5555 5556 5556 5557 5559 5560 5561 5562 5562 5563 5565 5566 5567 5568 5569 5571 5572 5573 5574 5575 5577 5577 5578 5579 5580 5581 5582 5583 5584 5585 5586 5587 5588 5589 5590 5591 5592 5593 5595 5596
5549 5548 5548 5547 5546 5545 5544 5543 5542 5541 5539 5538 5537 5536 5535 5534 5534 5533 5533 5532 5532 5532 5532 5532 5533 5534 5536 5537 5538 5537 5536 5535 5534 5534 5536 5540 5543 5544 5543 5544 5543 5543 5543 5545 5546 5547 5547 5547 5548 5549 5551 5552 5553 5554 5555 5556 5557 5558 5560 5561 5562 5563 5565 5567 5568 5569 5570 5572 5573 5574 5575 5576 5577 5578 5579 5580 5581 5582 5583 5584 5585 5586 5587 5589 5590 5591
5541 5540 5540 5539 5538 5537 5536 5535 5534 5532 5531 5529 5527 5527 5526 5525 5524 5524 5524 5522 5522 5522 5522 5522 5523 5524 5526 5527 5528 5527 5526 5526 5525 5524 5525 5528 5532 5535 5535 5535 5534 5535 5535 5537 5538 5538 5538 5538 5539 5540 5542 5544 5545 5546 5547 5548 5549 5550 5552 5554 5555 5556 5558 5559 5561 5562 5564 5565 5567 5568 5569 5570 5571 5572 5574 5575 5576 5577 5578 5579 5580 5582 5583 5584 5585 5587
5533 5532 5532 5531 5529 5528 5527 5526 5525 5524 5522 5519 5517 5517 5517 5515 5514 5514 5514 5512 5512 5512 5512 5512 5513 5514 5515 5517 5518 5517 5516 5516 5516 5514 5514 5517 5521 5524 5525 5525 5525 5525 5526 5528 5529 5530 5529 5529 5529 5530 5532 5534 5536 5537 5538 5540 5541 5542 5544 5545 5547 5548 5550 5552 5554 5555 5557 5559 5560 5562 5563 5564 5566 5567 5568 5570 5571 5572 5573 5574 5575 5576 5578 5579 5581 5582
5525 5524 5522 5522 5521 5520 5518 5516 5515 5514 5512 5510 5508 5507 5506 5505 5504 5503 5502 5501 5501 5501 5500 5500 5501 5502 5503 5505 5506 5507 5505 5505 5505 5504 5502 5504 5509 5513 5514 5514 5514 5514 5515 5517 5520 5521 5520 5520 5519 5520 5522 5524 5526 5527 5529 5531 5532 5533 5535 5537 5538 5540 5542 5544 5546 5548 5550 5551 5553 5555 5557 5558 5560 5561 5563 5564 5566 5567 5568 5569 5570 5571 5573 5574 5576 5577
5515 5514 5513 5512 5511 5510 5509 5507 5505 5503 5502 5500 5498 5496 5494 5493 5492 5492 5491 5489 5489 5489 5489 5488 5489 5490 5491 5493 5494 5494 5493 5493 5493 5492 5490 5492 5496 5500 5502 5503 5502 5502 5502 5505 5508 5510 5511 5510 5509 5509 5511 5513 5515 5517 5519 5521 5522 5524 5525 5527 5529 5531 5533 5536 5538 5540 5542 5544 5546 5548 5550 5552 5553 5555 5557 5558 5560 5562 5563 5564 5565 5566 5568 5569 5571 5572
5505 5504 5503 5501 5500 5499 5498 5496 5494 5492 5490 5489 5487 5485 5482 5481 5480 5480 5478 5477 5477 5477 5477 5477 5477 5477 5478 5480 5480 5481 5481 5481 5480 5479 5478 5479 5482 5486 5489 5491 5491 5490 5489 5492 5495 5498 5499 5499 5498 5499 5500 5502 5503 5505 5507 5510 5512 5514 5515 5517 5519 5521 5523 5525 5529 5532 5534 5536 5538 5540 5542 5545 5547 5549 5551 5552 5554 5556 5557 5559 5560 5561 5563 5564 5565 5567
5494 5493 5492 5490 5489 5487 5486 5485 5483 5481 5479 5477 5475 5473 5471 5469 5467 5467 5466 5465 5464 5463 5463 5463 5463 5464 5465 5466 5467 5468 5469 5468 5467 5466 5466 5466 5467 5471 5475 5477 5478 5477 5477 5478 5481 5484 5486 5487 5487 5488 5490 5491 5492 5493 5495 5498 5501 5503 5505 5507 5508 5510 5512 5515 5518 5522 5526 5527 5529 5532 5534 5537 5539 5541 5544 5546 5548 5550 5552 5553 5554 5555 5557 5559 5560 5562
5482 5481 5480 5479 5477 5476 5474 5473 5471 5469 5467 5465 5463 5461 5458 5456 5454 5453 5452 5452 5451 5450 5449 5449 5449 5450 5451 5452 5454 5456 5456 5454 5453 5453 5454 5453 5453 5455 5460 5463 5464 5464 5465 5465 5466 5469 5472 5473 5474 5476 5478 5480 5482 5482 5484 5486 5489 5491 5493 5495 5497 5499 5502 5504 5507 5511 5515 5518 5521 5523 5526 5529 5531 5534 5537 5539 5542 5544 5546 5547 5548 5550 5551 5553 5555 5556
5471 5470 5469 5467 5466 5464 5463 5461 5459 5457 5455 5453 5451 5448 5446 5443 5442 5441 5440 5439 5438 5436 5436 5435 5435 5435 5436 5438 5440 5442 5442 5440 5439 5439 5440 5439 5439 5441 5444 5447 5449 5452 5453 5452 5452 5454 5457 5459 5461 5462 5465 5468 5470 5471 5472 5474 5477 5479 5482 5484 5486 5488 5490 5493 5497 5500 5504 5508 5511 5514 5517 5520 5523 5526 5530 5532 5535 5537 5540 5542 5543 5544 5545 5547 5549 5551
5460 5459 5458 5457 5455 5453 5451 5449 5447 5445 5443 5441 5438 5435 5432 5430 5429 5428 5427 5426 5424 5422 5423 5422 5421 5421 5422 5424 5427 5428 5428 5427 5427 5426 5425 5424 5425 5427 5429 5430 5433 5437 5440 5439 5438 5438 5442 5445 5447 5448 5451 5455 5458 5460 5460 5462 5465 5467 5469 5471 5474 5476 5479 5482 5486 5490 5493 5498 5502 5505 5508 5512 5515 5518 5522 5525 5528 5532 5535 5537 5538 5539 5539 5542 5544 5546
5449 5448 5447 5445 5443 5441 5439 5437 5435 5433 5431 5429 5426 5422 5419 5416 5416 5416 5415 5412 5409 5409 5410 5410 5407 5407 5408 5411 5413 5414 5414 5416 5416 5414 5411 5409 5411 5412 5413 5414 5417 5422 5427 5426 5424 5424 5427 5430 5433 5434 5436 5440 5444 5447 5449 5451 5453 5455 5457 5459 5462 5465 5468 5472 5476 5480 5484 5488 5492 5496 5499 5503 5507 5510 5514 5518 5522 5527 5531 5533 5534 5534 5534 5536 5537 5540
5439 5437 5436 5434 5432 5429 5427 5426 5423 5421 5419 5417 5414 5411 5407 5404 5403 5403 5402 5399 5397 5396 5397 5396 5394 5394 5396 5398 5400 5401 5402 5404 5405 5403 5399 5397 5397 5398 5398 5399 5402 5407 5411 5410 5409 5410 5413 5416 5418 5420 5422 5426 5430 5433 5436 5438 5441 5444 5446 5448 5450 5453 5457 5461 5465 5470 5474 5478 5482 5486 5491 5495 5499 5503 5507 5512 5517 5522 5526 5528 5530 5530 5530 5530 5532 5534
5428 5426 5424 5422 5420 5418 5416 5414 5412 5410 5407 5406 5403 5400 5397 5393 5391 5391 5390 5387 5385 5384 5384 5383 5382 5382 5383 5385 5387 5389 5391 5393 5393 5392 5389 5388 5386 5385 5383 5385 5390 5394 5394 5394 5395 5397 5400 5402 5404 5407 5410 5412 5415 5418 5422 5426 5429 5433 5435 5437 5439 5442 5446 5450 5455 5460 5464 5469 5473 5478 5482 5486 5491 5495 5500 5505 5511 5517 5521 5524 5525 5525 5525 5525 5526 5528
5417 5415 5413 5411 5408 5406 5404 5403 5401 5399 5397 5395 5393 5390 5387 5384 5381 5379 5378 5376 5374 5373 5372 5372 5372 5372 5372 5373 5376 5378 5380 5381 5381 5380 5379 5378 5376 5373 5372 5374 5379 5382 5381 5380 5382 5385 5387 5388 5391 5395 5398 5400 5402 5404 5409 5414 5418 5422 5425 5427 5429 5432 5435 5440 5445 5450 5455 5460 5465 5469 5474 5478 5482 5487 5492 5498 5505 5511 5515 5518 5519 5519 5519 5519 5521 5523
5406 5404 5402 5400 5398 5396 5393 5392 5390 5388 5387 5385 5383 5380 5378 5375 5372 5370 5368 5366 5364 5363 5362 5362 5362 5362 5362 5363 5365 5368 5370 5371 5370 5368 5368 5368 5367 5364 5363 5365 5369 5371 5369 5369 5371 5373 5375 5375 5378 5383 5387 5389 5390 5392 5397 5402 5407 5411 5414 5417 5419 5421 5425 5429 5435 5440 5446 5451 5456 5461 5467 5471 5475 5480 5485 5491 5498 5504 5508 5511 5513 5513 5513 5514 5515 5518
5395 5393 5392 5389 5387 5385 5383 5382 5380 5379 5377 5375 5373 5371 5369 5366 5364 5362 5359 5357 5356 5355 5354 5354 5354 5354 5354 5354 5355 5357 5359 5361 5360 5358 5357 5358 5357 5356 5356 5357 5360 5361 5360 5360 5361 5362 5364 5365 5367 5371 5375 5378 5380 5382 5386 5391 5396 5400 5403 5407 5409 5412 5415 5420 5425 5431 5437 5442 5447 5453 5458 5463 5468 5473 5478 5484 5489 5496 5501 5504 5506 5507 5507 5508 5510 5512
5384 5382 5381 5379 5378 5376 5374 5372 5371 5369 5368 5367 5364 5362 5360 5358 5356 5354 5352 5350 5348 5347 5346 5346 5347 5347 5347 5346 5347 5348 5350 5352 5351 5350 5349 5349 5349 5349 5349 5351 5352 5352 5352 5352 5352 5352 5354 5355 5358 5361 5363 5366 5370 5373 5377 5381 5385 5389 5393 5396 5399 5402 5405 5410 5416 5422 5427 5433 5439 5445 5451 5456 5462 5466 5471 5477 5482 5487 5492 5496 5499 5500 5501 5502 5504 5507
5374 5373 5371 5370 5368 5367 5366 5364 5362 5360 5359 5358 5356 5353 5352 5350 5348 5346 5344 5343 5342 5340 5339 5339 5339 5339 5340 5340 5340 5341 5343 5344 5343 5343 5342 5342 5342 5342 5343 5344 5345 5345 5345 5345 5344 5345 5346 5347 5349 5351 5353 5355 5359 5363 5367 5371 5375 5379 5383 5387 5390 5392 5396 5401 5407 5412 5419 5425 5431 5437 5443 5448 5454 5459 5464 5469 5474 5479 5484 5489 5491 5492 5494 5497 5499 5502
5365 5364 5362 5360 5359 5358 5357 5355 5353 5352 5351 5349 5347 5345 5343 5342 5340 5339 5337 5336 5335 5334 5333 5332 5332 5332 5332 5333 5334 5335 5336 5337 5337 5336 5336 5336 5336 5336 5337 5337 5338 5339 5339 5338 5337 5338 5339 5339 5340 5342 5344 5346 5349 5353 5357 5362 5367 5370 5373 5377 5380 5384 5387 5392 5398 5404 5410 5417 5423 5429 5435 5441 5447 5452 5457 5462 5467 5472 5476 5479 5482 5486 5488 5491 5494 5497
5356 5355 5353 5352 5350 5349 5349 5347 5345 5344 5343 5341 5340 5337 5336 5334 5333 5332 5331 5330 5329 5328 5327 5326 5326 5326 5326 5327 5327 5329 5330 5330 5330 5330 5330 5329 5329 5330 5330 5330 5331 5332 5332 5332 5331 5331 5332 5332 5333 5334 5336 5338 5341 5344 5348 5353 5358 5362 5365 5368 5372 5376 5380 5385 5390 5396 5402 5408 5415 5421 5427 5434 5440 5445 5450 5456 5461 5465 5469 5474 5477 5480 5482 5486 5490 5493
5347 5346 5345 5343 5342 5341 5340 5339 5337 5336 5335 5333 5332 5330 5328 5327 5327 5326 5324 5323 5323 5322 5322 5321 5321 5321 5321 5321 5321 5322 5323 5324 5324 5325 5324 5324 5323 5323 5324 5324 5324 5325 5326 5325 5325 5325 5326 5326 5326 5327 5328 5330 5333 5336 5340 5345 5349 5353 5357 5360 5364 5369 5373 5378 5383 5389 5395 5401 5407 5414 5420 5427 5432 5438 5444 5449 5454 5459 5463 5467 5471 5474 5478 5482 5486 5489
5339 5338 5337 5335 5333 5332 5331 5330 5329 5328 5327 5326 5325 5323 5322 5322 5321 5320 5319 5318 5318 5317 5317 5317 5316 5316 5316 5316 5316 5316 5317 5317 5318 5318 5318 5318 5317 5317 5317 5317 5317 5318 5319 5319 5318 5318 5319 5319 5319 5320 5322 5324 5326 5329 5333 5337 5342 5346 5350 5354 5359 5363 5367 5372 5377 5382 5387 5393 5400 5407 5414 5420 5426 5432 5437 5442 5447 5452 5456 5459 5464 5469 5473 5477 5481 5485
5330 5329 5328 5327 5326 5325 5324 5323 5322 5321 5320 5319 5318 5317 5317 5316 5315 5315 5314 5314 5314 5313 5313 5312 5311 5311 5310 5310 5310 5310 5310 5311 5312 5312 5312 5312 5312 5311 5311 5311 5311 5312 5312 5312 5312 5312 5312 5312 5312 5314 5316 5318 5320 5323 5326 5330 5335 5339 5344 5348 5353 5357 5361 5367 5372 5376 5381 5387 5394 5400 5406 5412 5419 5425 5431 5436 5441 5445 5449 5453 5458 5462 5467 5472 5477 5481
5322 5321 5321 5320 5319 5318 5317 5316 5315 5314 5314 5313 5313 5312 5312 5312 5311 5311 5311 5310 5310 5309 5309 5308 5307 5306 5305 5305 5304 5304 5304 5304 5305 5305 5305 5306 5305 5305 5305 5305 5305 5305 5305 5306 5305 5305 5305 5306 5306 5307 5310 5312 5314 5317 5320 5324 5329 5334 5339 5343 5347 5351 5356 5362 5366 5370 5375 5381 5387 5393 5399 5406 5413 5419 5425 5429 5434 5439 5443 5448 5453 5459 5464 5469 5473 5476
5314 5314 5314 5313 5312 5312 5311 5310 5309 5309 5308 5308 5308 5308 5308 5308 5307 5307 5307 5307 5306 5305 5304 5303 5302 5301 5300 5299 5299 5299 5299 5299 5298 5298 5299 5299 5299 5299 5299 5298 5298 5298 5299 5299 5298 5298 5299 5300 5301 5302 5304 5306 5309 5312 5315 5319 5324 5329 5334 5338 5343 5348 5353 5357 5361 5365 5370 5375 5381 5387 5394 5400 5407 5413 5419 5424 5429 5434 5439 5444 5449 5455 5460 5466 5470 5473
5308 5308 5308 5307 5307 5306 5306 5305 5305 5305 5305 5305 5305 5304 5304 5304 5303 5302 5302 5302 5301 5300 5299 5298 5297 5296 5295 5294 5294 5294 5294 5293 5292 5292 5292 5292 5292 5292 5292 5292 5292 5292 5292 5292 5292 5292 5293 5294 5295 5297 5298 5301 5304 5307 5310 5314 5320 5325 5330 5335 5341 5346 5349 5351 5355 5360 5365 5370 5376 5382 5388 5395 5401 5407 5413 5419 5425 5430 5435 5440 5446 5451 5456 5462 5466 5470
5303 5303 5303 5302 5302 5302 5302 5302 5302 5301 5301 5301 5301 5301 5300 5299 5298 5297 5296 5295 5295 5294 5293 5292 5291 5290 5289 5288 5288 5288 5288 5287 5286 5286 5285 5285 5285 5285 5285 5285 5284 5285 5285 5286 5286 5286 5287 5288 5290 5291 5294 5296 5299 5302 5306 5310 5316 5321 5327 5332 5336 5339 5342 5344 5349 5354 5360 5365 5371 5377 5383 5389 5396 5402 5408 5415 5420 5425 5430 5436 5441 5447 5453 5458 5462 5467
5299 5299 5299 5299 5298 5298 5298 5298 5298 5298 5297 5297 5297 5296 5294 5293 5292 5291 5291 5290 5289 5288 5287 5286 5285 5284 5282 5282 5282 5282 5282 5281 5280 5279 5278 5278 5277 5277 5277 5277 5277 5278 5278 5279 5280 5281 5282 5283 5285 5287 5289 5292 5295 5297 5302 5307 5312 5317 5323 5327 5331 5334 5336 5340 5345 5350 5355 5360 5366 5372 5378 5384 5391 5398 5404 5410 5416 5421 5426 5432 5438 5445 5450 5455 5459 5463
5296 5296 5296 5296 5295 5295 5295 5295 5294 5293 5293 5292 5291 5290 5289 5288 5287 5286 5285 5285 5284 5283 5282 5280 5280 5278 5277 5276 5276 5276 5275 5274 5273 5272 5272 5271 5270 5270 5271 5271 5271 5272 5272 5273 5274 5275 5277 5278 5280 5283 5286 5288 5290 5293 5298 5303 5308 5313 5318 5322 5326 5330 5333 5337 5341 5345 5350 5356 5361 5367 5373 5380 5386 5392 5399 5405 5410 5416 5422 5429 5435 5441 5446 5450 5455 5460
5293 5293 5292 5292 5292 5292 5291 5290 5290 5289 5288 5287 5286 5285 5284 5283 5282 5282 5281 5280 5280 5278 5277 5276 5275 5274 5272 5271 5270 5270 5269 5267 5266 5266 5265 5264 5264 5264 5264 5264 5265 5266 5267 5268 5269 5270 5272 5274 5277 5280 5282 5285 5287 5290 5295 5300 5305 5309 5313 5317 5321 5325 5329 5333 5337 5342 5347 5353 5358 5363 5369 5376 5382 5388 5393 5400 5406 5413 5419 5425 5432 5437 5442 5447 5452 5457
5290 5289 5289 5289 5288 5287 5287 5286 5285 5284 5283 5282 5282 5281 5280 5279 5279 5278 5277 5276 5276 5274 5273 5272 5270 5269 5268 5266 5265 5264 5263 5261 5260 5259 5258 5258 5258 5258 5258 5259 5260 5261 5263 5264 5265 5267 5268 5270 5272 5276 5279 5281 5283 5287 5292 5297 5301 5305 5309 5314 5318 5322 5326 5330 5334 5339 5345 5350 5355 5360 5366 5371 5377 5382 5389 5396 5403 5409 5415 5422 5428 5434 5439 5443 5449 5455
5287 5286 5286 5285 5284 5283 5282 5282 5281 5280 5279 5278 5278 5277 5276 5276 5275 5275 5274 5273 5272 5271 5270 5268 5267 5265 5264 5262 5261 5259 5257 5256 5255 5253 5253 5252 5252 5253 5254 5255 5256 5257 5259 5261 5263 5265 5266 5267 5269 5272 5275 5277 5280 5284 5289 5293 5298 5302 5308 5313 5317 5321 5325 5328 5332 5337 5342 5347 5352 5357 5362 5367 5372 5378 5385 5392 5398 5404 5410 5417 5424 5430 5435 5440 5446 5452
5284 5283 5282 5282 5281 5280 5279 5278 5277 5277 5276 5275 5274 5274 5273 5272 5272 5271 5270 5269 5268 5267 5266 5264 5263 5262 5260 5258 5257 5255 5253 5252 5250 5249 5248 5248 5248 5249 5250 5251 5253 5255 5257 5259 5261 5263 5264 5265 5267 5268 5271 5274 5277 5282 5286 5291 5296 5301 5306 5311 5316 5319 5323 5327 5331 5335 5340 5345 5350 5355 5360 5365 5370 5377 5383 5389 5394 5400 5407 5414 5421 5426 5431 5437 5443 5448
5281 5280 5279 5278 5277 5276 5275 5275 5274 5273 5272 5272 5271 5271 5270 5269 5268 5267 5267 5266 5265 5264 5262 5261 5260 5258 5257 5255 5253 5252 5250 5248 5246 5245 5244 5244 5245 5246 5247 5248 5251 5253 5255 5257 5259 5260 5261 5262 5264 5266 5268 5271 5275 5279 5284 5288 5294 5299 5305 5309 5313 5317 5322 5325 5330 5334 5338 5343 5347 5352 5357 5362 5368 5373 5379 5385 5391 5397 5404 5411 5417 5422 5427 5434 5440 5444